RH
69 71 72 75 78 83 78 81 84 74 78 78 81 89 78 75 76 77 77 77 79 72 70 67 65 68 68 70 68 64 58 57 54 52 59 49 42 47 49 46 42 39 37 42 39 35 34 26 26 29 30 32 32 34 39 39 33 26 24 22 24 26 27 27 27 26 25 25 25 26 26 26 26 26 26 26 26 27 29 34 44 52 55 49 40 44 52 63 69 65 68 71 64 59 62 60 58
63 65 67 69 71 77 73 79 81 69 71 69 77 86 72 68 71 74 75 78 79 68 67 63 62 67 65 67 66 66 61 51 51 62 63 42 41 49 48 46 40 38 36 39 38 37 34 23 27 29 29 30 28 31 30 29 25 23 23 23 27 27 29 30 29 27 25 27 31 33 32 30 27 26 27 29 31 32 33 32 36 46 54 50 44 48 55 66 68 65 69 70 64 62 62 60 57
58 58 59 62 65 68 68 75 75 65 66 66 80 82 68 71 71 73 74 74 72 66 68 64 66 69 67 69 67 72 67 60 66 71 63 39 40 47 47 46 39 38 36 36 36 39 34 21 27 27 26 28 27 28 25 24 21 22 24 26 28 28 30 31 32 28 25 30 36 36 35 31 27 30 35 40 42 43 44 41 35 39 51 54 50 52 61 68 66 64 66 67 66 65 62 60 58
54 54 55 59 62 66 72 78 68 61 63 64 80 79 68 73 70 71 72 71 71 68 69 68 71 72 73 73 68 72 67 64 69 66 56 38 38 45 45 44 39 39 35 36 39 40 32 21 26 25 25 27 26 25 23 22 21 24 25 28 29 30 33 33 35 30 27 31 34 32 30 30 33 41 46 47 48 49 50 48 41 37 47 56 53 52 63 67 63 65 68 73 70 65 62 61 60
51 51 52 56 59 65 77 78 65 63 68 68 78 83 77 74 69 68 68 70 73 73 73 73 74 74 77 74 70 79 75 64 64 65 53 35 38 45 45 43 41 38 34 38 39 38 29 20 24 24 24 26 25 24 23 22 23 26 27 30 30 32 34 35 35 31 29 28 30 29 31 37 43 46 43 42 43 47 50 50 46 40 45 55 53 50 63 65 58 62 69 76 72 67 66 64 62
50 51 51 53 57 66 73 68 63 67 73 79 84 84 81 77 73 69 68 69 72 76 76 77 77 76 79 77 73 77 76 69 71 71 48 33 42 48 47 43 41 35 33 38 36 36 26 19 24 23 24 25 26 24 23 23 25 27 29 30 30 32 34 35 34 31 29 27 29 30 36 44 43 40 36 35 35 38 45 50 49 43 47 55 55 54 62 61 56 60 67 72 70 70 68 64 65
47 51 55 57 62 69 69 62 68 73 69 77 88 88 82 78 77 74 71 70 71 74 74 79 80 81 84 79 77 73 73 73 75 72 43 32 46 48 48 45 42 32 30 38 39 35 21 18 24 23 24 26 26 24 23 25 27 29 30 31 31 33 34 35 33 31 28 27 31 34 41 46 41 36 34 34 31 30 37 47 50 46 49 56 59 60 63 59 55 59 68 72 69 68 65 64 66
40 46 54 60 65 65 62 63 72 80 73 68 82 91 84 79 80 77 76 75 75 73 73 78 78 86 87 78 79 72 70 73 73 71 43 31 45 47 47 48 43 31 27 35 41 36 20 18 23 23 24 26 27 25 25 27 29 30 31 32 33 33 34 35 33 31 28 28 32 36 42 45 42 37 35 34 31 29 31 40 48 49 50 57 60 60 62 60 55 56 65 70 66 64 63 64 66
35 41 50 58 58 54 54 64 71 79 82 71 74 81 77 77 77 74 76 79 77 72 73 77 78 91 89 74 76 71 69 74 74 74 48 30 41 46 47 49 45 33 25 28 35 32 19 18 23 23 24 27 27 26 27 28 30 31 32 33 33 34 34 34 32 30 29 29 32 37 40 41 41 39 38 36 33 31 29 33 42 49 51 57 60 57 58 60 56 54 62 64 64 65 64 64 65
35 37 46 55 50 45 46 58 68 73 76 72 73 73 72 75 73 71 74 78 79 77 75 76 76 86 86 74 73 70 69 74 74 76 56 32 37 47 47 50 47 36 24 24 32 29 19 19 21 24 24 26 28 28 29 30 31 32 33 34 34 35 34 33 31 29 30 30 32 37 37 38 39 39 39 36 35 32 29 30 37 48 52 56 61 62 59 61 61 56 60 62 64 69 67 64 66
34 35 41 47 42 40 43 53 67 72 65 65 71 69 71 73 73 73 72 76 81 81 77 78 80 78 78 73 70 65 65 70 70 73 62 37 35 46 47 50 48 38 27 23 33 30 20 19 20 25 25 26 28 28 30 31 32 33 33 34 34 35 34 32 31 29 29 30 32 35 35 35 37 37 36 35 35 32 29 28 33 44 54 62 66 67 62 65 68 60 64 65 66 71 69 66 68
30 34 41 40 36 42 49 54 64 73 70 70 72 67 69 72 76 77 74 77 82 88 82 77 77 76 79 75 67 59 59 63 63 68 61 41 38 45 45 50 47 40 34 28 34 32 20 19 20 24 26 26 28 29 30 31 32 33 34 34 35 35 34 32 31 29 28 29 31 34 34 33 35 36 36 34 33 31 30 27 29 40 57 71 70 67 64 68 68 61 69 72 68 70 70 66 68
25 32 41 37 38 48 52 54 60 72 75 75 71 66 70 71 75 75 73 77 81 95 92 78 74 77 83 78 66 56 53 54 53 61 58 45 45 47 45 50 47 40 38 32 35 32 19 19 20 22 27 27 28 29 30 32 33 33 34 35 35 34 34 32 30 29 28 28 30 32 32 32 33 35 35 34 32 30 29 28 28 37 57 72 71 70 67 67 66 62 69 73 70 69 69 66 67
25 27 36 38 40 46 51 56 57 62 64 66 64 65 70 69 72 71 74 84 85 89 85 79 79 83 86 81 75 63 52 48 51 57 56 53 51 48 47 51 48 38 31 27 30 28 18 19 22 23 26 28 29 30 31 32 33 34 34 34 35 34 33 32 30 29 28 28 29 31 31 30 32 33 35 35 34 31 28 28 27 33 56 67 68 73 69 63 63 61 63 66 67 66 66 67 66
25 25 35 37 34 39 48 54 55 56 55 59 63 65 68 67 69 67 73 91 90 78 71 72 74 81 87 85 87 76 58 50 53 56 55 58 56 51 51 52 49 39 30 22 21 22 17 17 20 22 25 28 28 30 31 32 33 34 35 35 35 35 33 31 29 28 28 28 29 29 30 29 31 33 34 35 34 31 28 28 26 31 52 64 64 69 67 60 59 58 59 62 66 65 67 69 67
22 27 35 32 31 37 44 52 55 55 54 58 63 66 71 69 71 70 70 80 82 71 70 74 71 76 82 82 88 80 64 57 55 57 55 56 58 57 55 54 52 44 33 22 19 18 16 16 17 21 25 27 28 29 31 32 33 34 34 35 35 34 33 31 29 28 28 29 29 30 30 29 30 31 32 34 32 29 28 27 26 27 44 63 63 61 57 56 58 59 60 63 64 65 67 70 69
22 29 32 28 31 35 44 53 52 53 56 59 60 64 71 72 73 74 73 75 79 76 74 77 74 74 78 78 85 77 66 63 58 59 58 53 55 60 60 59 56 47 36 24 19 18 15 16 16 20 25 26 28 29 30 31 33 33 34 34 34 34 32 30 29 28 28 28 30 30 30 29 30 30 30 31 30 29 27 26 26 25 39 60 61 54 50 53 61 61 61 62 61 64 67 68 69
25 34 30 28 33 34 46 56 55 62 63 60 62 64 69 74 70 72 83 80 76 81 78 79 79 77 78 75 79 78 71 68 63 65 65 57 59 65 62 60 55 46 41 30 21 18 16 16 15 19 25 27 27 29 31 31 32 33 33 34 34 33 31 30 28 28 29 29 30 30 30 30 30 30 29 29 29 28 27 26 27 24 35 59 62 52 48 52 61 61 61 63 62 66 68 69 69
26 35 29 28 34 32 42 50 56 68 64 60 66 67 68 73 69 71 90 82 71 86 87 82 84 83 81 77 79 81 77 75 71 70 71 64 64 66 62 61 59 49 44 37 26 20 18 17 17 19 25 30 28 28 32 31 32 32 32 33 33 32 30 29 29 28 29 29 30 30 30 31 30 30 28 28 29 28 28 28 27 25 35 57 61 52 51 55 59 57 61 66 67 72 71 69 69
24 30 28 29 31 32 41 45 50 61 61 63 67 66 66 67 65 66 81 85 80 92 94 89 95 94 83 75 79 84 83 84 81 77 76 73 67 63 61 62 60 53 47 41 32 25 22 20 21 24 31 35 29 28 33 32 32 32 32 32 32 31 30 29 29 29 30 30 30 30 30 30 30 29 28 28 29 30 32 31 30 35 41 53 57 53 58 64 62 59 63 68 71 75 74 70 68
23 27 29 27 29 36 44 44 50 59 62 64 64 63 62 59 60 59 68 88 92 85 81 83 92 92 80 70 72 78 82 86 87 84 82 79 73 66 63 60 58 57 51 44 38 30 29 29 25 23 26 29 26 28 33 31 30 31 31 32 32 30 30 29 29 29 29 29 30 30 30 30 30 31 32 32 33 35 37 34 34 42 45 50 57 55 58 68 68 66 69 74 75 73 72 73 72
24 25 25 24 28 38 40 46 58 63 61 62 63 61 58 56 58 59 62 77 82 72 67 71 74 78 86 84 74 76 84 87 89 89 88 85 80 73 67 63 60 60 55 49 44 36 35 37 35 29 24 23 24 27 31 30 29 31 30 31 31 29 29 29 29 29 30 30 31 32 33 35 36 38 39 39 39 40 40 38 34 38 46 53 59 55 55 66 70 69 72 76 79 75 71 73 75
24 24 24 22 27 34 39 54 58 50 53 57 58 57 57 58 59 62 64 67 70 69 66 66 65 65 78 83 74 79 85 87 93 93 93 91 86 81 75 70 65 62 60 56 50 43 38 37 40 41 31 26 27 29 30 29 29 30 30 30 29 29 28 29 30 31 33 36 37 39 41 44 46 46 47 46 46 44 43 42 34 32 46 57 59 55 54 64 69 69 70 71 77 79 73 70 73
23 25 25 23 26 31 37 53 53 46 54 54 54 55 57 61 62 62 64 67 70 72 69 64 61 57 64 70 69 75 74 80 95 94 92 91 87 86 82 79 73 67 64 62 57 51 46 41 41 43 38 34 34 32 30 29 29 29 29 29 29 29 30 31 34 36 39 43 45 47 48 49 50 49 49 49 48 47 44 42 37 36 50 60 59 55 53 60 67 67 66 66 70 75 74 71 71
23 25 26 25 26 30 37 46 50 53 54 51 52 51 53 61 62 63 64 66 66 67 67 63 62 59 63 66 64 70 72 78 83 77 78 83 84 86 86 82 78 74 70 67 65 60 55 50 46 43 42 42 38 34 32 31 31 30 30 30 31 32 33 35 38 42 44 47 49 51 52 50 48 47 47 47 45 47 45 41 39 41 53 62 60 56 52 57 63 65 64 63 66 72 77 76 73
21 24 27 27 26 29 37 41 43 48 46 47 51 47 52 59 59 63 62 63 62 62 64 63 64 64 65 64 63 70 72 72 70 65 67 71 74 81 87 84 78 78 76 72 69 66 63 59 54 48 45 43 40 37 35 35 35 34 34 33 34 35 36 39 42 45 47 50 51 53 55 53 49 48 47 45 43 44 44 40 38 38 50 63 61 56 53 55 60 63 67 67 66 71 75 76 76
18 21 25 27 30 30 35 40 41 43 41 45 48 45 51 56 57 62 61 60 60 61 62 62 63 63 63 61 66 72 66 65 67 65 66 66 67 71 79 82 80 81 81 78 75 72 69 66 64 59 53 49 44 41 39 39 40 40 40 38 38 40 41 44 47 49 50 52 52 55 59 58 54 53 51 49 46 43 40 39 37 35 48 65 63 57 53 54 59 61 69 72 65 67 71 72 75
14 20 26 26 30 31 34 40 41 43 41 41 46 48 52 53 53 54 55 57 57 58 61 63 62 59 61 62 67 70 65 66 68 67 68 66 66 67 73 78 82 86 85 84 83 80 77 72 71 70 68 65 60 54 50 47 46 45 47 47 47 49 52 54 55 56 55 55 55 57 61 59 55 57 57 55 53 46 41 37 36 33 44 64 66 59 54 53 58 60 67 71 65 64 67 68 72
14 23 35 33 33 34 33 38 42 43 43 44 50 56 55 49 48 46 48 52 52 56 62 67 67 62 65 67 70 70 67 68 65 67 68 63 64 65 69 73 75 80 83 88 88 84 83 79 77 76 77 77 75 73 69 65 61 57 56 58 61 63 66 68 65 63 60 57 58 59 60 58 55 57 58 58 58 54 47 38 36 33 37 61 70 62 55 51 57 60 62 66 66 66 64 67 73
16 25 37 38 41 41 34 36 39 41 43 43 47 60 60 48 44 44 47 51 52 59 64 66 66 66 69 70 71 71 69 67 63 66 67 64 65 64 64 66 67 72 76 85 90 87 88 86 81 80 79 78 77 78 79 79 78 74 69 69 73 77 78 79 74 68 64 61 60 60 61 60 58 60 60 59 59 59 56 46 43 39 37 60 73 66 59 50 54 60 58 62 65 66 67 69 73
18 24 30 31 39 42 31 33 41 43 44 42 46 62 64 49 44 44 46 50 55 61 63 61 62 63 67 69 69 70 72 71 64 64 68 66 67 65 63 61 63 70 72 76 80 79 80 79 79 78 77 79 76 74 78 84 86 84 79 77 79 85 85 82 77 69 66 66 65 65 65 65 64 65 64 64 63 62 62 56 52 45 43 64 73 68 64 52 52 57 54 58 65 70 69 67 69
18 20 23 22 28 31 26 31 44 49 46 42 50 64 61 46 44 45 43 47 52 58 57 54 57 58 62 66 65 66 72 74 67 62 63 64 65 65 63 60 61 67 68 67 67 67 66 69 75 75 74 79 77 71 74 81 82 78 78 78 79 83 82 78 74 70 71 72 70 71 70 68 68 68 68 69 70 68 65 63 62 52 51 68 72 70 71 56 50 55 51 52 61 69 65 62 71
16 15 16 17 21 27 33 37 37 47 55 48 52 67 66 51 44 44 43 43 45 49 51 49 52 53 56 62 64 63 66 70 69 65 62 62 63 62 62 63 64 65 65 63 63 63 63 64 69 71 73 77 76 73 75 78 78 74 75 75 73 77 77 73 71 71 74 76 73 72 71 69 69 69 69 70 73 73 69 69 69 61 60 72 72 70 74 63 52 53 51 50 55 61 57 60 70
13 13 13 14 18 21 35 44 30 39 64 61 55 62 62 49 41 41 42 42 41 42 45 47 47 46 49 57 63 64 64 65 66 64 62 60 60 60 61 65 66 66 66 65 65 65 64 63 64 66 68 69 69 71 75 76 74 73 73 70 69 73 75 72 70 70 72 74 73 72 69 69 70 70 70 71 72 75 73 73 74 69 67 74 74 72 73 68 57 52 52 51 55 56 51 54 61
12 12 11 12 15 13 28 49 43 44 63 66 60 56 48 43 40 38 40 41 41 41 43 44 43 43 50 57 61 63 66 65 59 57 57 57 59 59 59 64 66 66 67 67 67 66 66 65 64 63 64 65 66 65 68 69 67 68 70 68 68 72 74 71 68 68 69 69 71 72 71 71 72 71 72 73 73 75 75 75 77 74 71 72 73 72 73 71 62 55 54 53 54 55 49 49 57
12 12 11 11 12 17 31 49 54 58 70 74 71 60 46 43 43 40 44 44 41 41 42 43 43 44 54 60 60 62 66 65 59 56 54 53 57 58 58 62 67 70 73 74 71 67 65 63 64 65 65 67 68 64 63 66 66 67 67 67 68 70 72 71 69 70 70 68 69 73 74 74 76 76 75 76 75 76 76 75 77 77 76 74 73 72 72 74 67 56 56 56 55 56 53 49 53
13 11 12 12 13 29 46 48 42 44 60 71 67 60 48 43 45 43 47 48 43 43 41 41 44 44 53 59 61 63 63 65 66 64 61 59 59 57 55 57 63 69 71 73 75 72 68 65 66 68 67 68 69 68 67 67 66 67 69 69 70 70 70 71 72 73 72 69 69 73 76 75 77 79 77 77 77 76 76 75 74 76 78 77 74 71 71 74 68 57 58 60 55 55 57 52 51
12 12 11 13 21 41 57 48 29 23 43 63 64 63 54 45 47 43 44 47 44 45 42 42 45 45 48 51 58 63 61 66 72 70 69 68 65 61 56 54 59 65 63 60 64 68 70 71 74 75 73 73 75 73 71 70 68 69 70 71 72 71 70 71 71 70 68 66 67 71 75 73 74 78 76 75 76 74 75 75 73 73 75 77 75 70 69 71 66 57 55 58 53 53 57 54 51
12 14 9 16 29 43 51 37 27 34 46 64 75 71 53 49 58 48 42 46 43 43 45 45 46 46 47 46 53 63 64 68 71 70 73 72 69 66 63 59 59 63 61 55 53 57 62 65 69 73 74 76 79 76 73 72 70 70 71 69 69 69 69 70 69 69 67 66 66 66 70 71 73 78 75 73 74 73 75 76 76 74 72 74 74 69 68 68 64 55 50 53 52 53 58 55 49
13 13 8 19 27 35 48 34 37 62 64 67 81 76 60 63 74 61 47 46 44 45 46 47 47 47 49 48 53 61 64 69 69 68 70 70 70 68 67 65 62 63 64 60 57 57 60 62 63 66 68 72 76 76 75 73 71 71 71 69 67 66 67 67 67 68 67 66 66 66 69 70 72 76 74 72 73 73 76 79 78 75 71 71 71 69 71 69 62 53 46 49 48 49 56 58 53
12 11 10 20 24 34 47 34 44 75 74 70 74 70 71 78 81 79 67 52 48 49 47 49 49 48 52 52 56 61 62 67 67 65 65 64 65 65 65 66 63 63 62 59 60 61 62 64 63 63 64 65 69 71 70 71 72 71 71 70 67 64 64 65 65 66 65 65 67 66 67 68 70 72 69 69 73 72 75 78 77 74 69 68 69 68 71 70 62 52 45 46 46 44 50 58 58
10 11 11 19 29 38 36 30 50 68 67 72 65 53 66 79 81 86 85 66 54 53 50 50 49 47 51 53 56 61 63 65 63 62 62 60 60 60 62 64 61 59 57 56 59 60 61 62 61 60 61 61 62 63 62 64 68 69 70 72 71 69 67 66 66 67 67 67 67 67 68 69 67 66 64 67 72 72 72 74 73 72 68 66 67 67 70 69 62 56 47 43 45 44 46 51 56
10 12 12 18 35 42 31 34 52 52 51 62 54 41 53 75 82 81 87 82 63 55 54 54 52 51 53 55 57 61 63 63 61 59 59 58 58 59 60 62 61 60 59 58 59 60 59 58 58 58 59 61 61 61 60 59 61 63 64 65 67 71 72 72 72 71 71 69 67 67 69 70 67 64 64 64 68 72 72 71 70 69 67 64 66 68 69 68 62 59 52 43 42 44 45 48 50
11 11 12 22 40 45 40 43 46 44 50 54 51 46 41 56 73 68 75 87 75 61 58 55 55 54 55 56 56 59 62 63 64 63 61 60 59 60 59 58 59 61 61 62 63 64 63 62 61 62 61 62 62 62 61 60 61 60 60 59 60 63 66 69 72 72 72 71 70 70 70 71 69 68 68 66 67 71 71 71 68 65 65 66 66 67 69 68 60 58 54 45 43 44 44 47 47
14 10 14 33 45 45 45 45 41 45 51 48 52 52 33 43 72 66 61 80 83 69 59 56 57 56 56 56 56 61 64 62 60 55 50 48 46 44 43 40 41 43 45 49 52 54 57 59 60 61 63 64 65 64 63 61 62 62 61 60 59 59 61 64 65 65 67 69 69 70 70 72 72 71 72 70 68 69 70 71 67 62 66 67 65 67 69 66 60 57 54 48 46 46 42 43 45
14 9 20 40 46 45 46 43 42 46 43 39 49 48 29 40 76 76 64 76 85 76 65 59 58 57 56 57 60 64 61 53 46 40 36 35 34 32 31 29 27 27 28 31 33 35 38 41 41 43 48 53 57 61 64 63 63 63 62 61 58 57 59 60 62 63 65 65 64 65 65 68 70 70 72 73 70 68 69 71 67 63 67 67 65 68 69 66 59 55 54 50 47 47 43 40 41
11 13 28 43 45 46 46 43 47 45 35 34 45 48 35 37 63 79 75 75 83 84 73 61 58 59 59 61 64 62 53 45 40 38 37 35 34 33 31 29 27 25 25 25 27 28 30 30 29 30 33 38 44 51 58 62 63 64 63 64 64 62 60 58 58 62 65 66 66 67 66 66 67 67 69 72 72 70 70 71 70 68 67 66 65 66 67 66 60 54 53 51 49 49 46 41 40
14 24 35 39 41 43 43 45 47 37 31 38 47 50 41 33 50 75 75 66 76 84 73 60 58 59 61 64 62 55 46 44 45 44 42 38 35 33 33 32 28 25 26 26 26 26 27 27 26 26 28 30 34 40 47 55 61 64 65 66 68 68 66 63 60 60 61 63 65 67 69 69 69 68 68 70 71 72 72 72 74 73 67 63 64 65 65 63 59 56 55 50 49 51 48 43 42
23 31 32 26 30 35 32 36 36 28 35 49 52 48 42 42 59 77 72 64 77 84 69 59 59 58 60 61 57 51 46 48 51 49 46 41 35 31 30 33 33 29 26 24 23 23 22 23 23 23 24 24 25 27 31 37 45 53 61 67 71 71 69 67 65 65 64 66 67 68 70 70 70 69 68 69 70 71 71 70 74 76 71 65 63 63 63 60 57 58 57 50 48 52 50 46 44
27 30 27 18 20 23 23 26 24 23 37 54 57 45 39 49 67 76 76 78 88 83 64 57 59 59 60 59 55 54 52 52 53 49 45 40 32 25 21 25 33 35 30 24 21 20 20 20 20 20 21 22 22 23 23 24 27 32 39 48 57 65 70 72 71 71 70 70 70 70 69 69 69 68 68 69 71 70 69 71 72 73 73 69 64 61 58 58 59 59 57 51 48 52 54 50 45
26 25 22 17 15 14 16 19 17 23 40 55 55 42 36 48 64 74 81 89 93 83 64 57 61 62 61 59 57 57 57 55 53 48 42 34 24 18 15 17 26 33 33 27 22 21 20 20 21 21 22 23 23 24 24 24 24 24 25 27 31 38 47 56 62 66 70 73 73 70 69 71 73 72 70 70 71 71 70 71 71 70 73 72 67 64 59 59 61 57 54 52 48 49 53 52 47
25 24 21 18 14 14 17 20 23 27 32 43 47 43 50 58 63 75 85 92 96 86 67 58 62 66 64 62 59 60 61 57 50 43 34 25 17 16 16 16 20 25 28 26 21 21 23 24 25 25 25 25 24 25 24 24 24 23 23 23 23 23 25 29 34 41 48 58 70 74 73 73 75 75 74 71 70 70 70 71 70 69 71 71 68 67 65 64 62 56 52 52 49 47 49 52 50
23 23 20 17 16 19 20 23 31 28 21 35 42 42 58 64 61 76 89 93 98 91 80 75 73 70 67 65 63 64 62 53 43 35 27 21 18 18 18 17 18 19 20 20 19 21 25 27 28 27 27 26 25 24 24 23 23 22 21 22 21 22 22 22 22 24 27 33 46 64 76 79 78 76 76 75 73 71 69 69 69 68 69 70 70 69 69 69 65 61 58 53 49 48 46 47 50
18 18 15 16 19 22 21 20 27 24 17 33 40 35 48 56 59 79 90 92 96 94 92 93 89 79 69 66 66 63 57 45 36 31 24 22 21 19 18 17 17 18 18 18 19 21 25 27 28 28 26 26 24 23 22 21 21 20 20 21 20 19 20 21 22 21 22 23 26 38 56 73 82 82 79 77 76 74 72 69 69 69 69 71 71 69 70 72 68 65 63 56 52 52 46 42 46
17 17 15 16 16 17 21 18 21 23 18 27 36 32 37 43 52 69 74 79 92 95 93 98 98 87 72 67 67 60 49 39 34 31 26 24 23 20 19 18 17 18 18 19 20 21 24 24 25 25 24 23 22 22 21 21 21 20 20 20 21 19 18 19 21 21 21 22 22 23 30 43 60 74 79 79 77 74 73 71 70 70 70 71 71 68 69 72 70 66 65 62 57 54 51 44 43
17 17 16 16 15 16 22 19 18 22 19 23 32 29 32 40 48 61 63 68 86 93 89 93 96 87 74 68 65 55 43 38 36 33 30 28 23 20 20 19 19 20 20 21 21 21 21 21 21 21 20 20 19 19 20 20 20 20 20 21 21 21 20 19 20 21 21 21 21 21 21 24 32 45 58 67 72 72 71 70 68 67 68 70 71 70 70 71 71 68 64 64 62 57 54 49 43
17 17 14 15 18 18 21 21 21 21 17 22 25 24 37 42 39 60 73 70 80 85 79 82 86 83 79 72 63 51 42 39 38 37 37 34 27 21 20 19 19 20 21 21 21 21 20 19 19 19 18 18 18 18 19 20 20 20 20 20 21 22 23 24 23 22 23 23 23 21 20 20 21 27 33 40 50 59 63 66 65 62 63 66 69 71 72 71 71 69 65 64 66 63 57 51 47
16 15 13 15 18 17 18 20 24 24 19 23 20 21 42 40 28 56 81 74 76 78 73 77 80 80 81 73 58 47 41 41 39 38 39 37 30 24 21 20 20 20 21 21 20 20 19 19 19 19 19 19 19 19 19 19 20 21 21 21 21 21 22 25 25 24 25 25 25 25 22 19 19 21 24 28 33 39 47 56 61 61 61 63 66 69 72 74 72 70 68 68 71 71 62 53 51
Wind_Speed
13 11 9 9 8 8 8 8 6 7 9 7 8 6 6 9 9 9 9 10 9 9 10 12 15 14 12 12 10 8 13 15 12 10 7 10 16 17 17 15 14 14 14 13 13 13 15 17 18 19 19 19 20 19 20 21 22 21 20 20 20 19 18 16 15 15 14 12 11 11 10 9 9 8 8 8 8 9 9 10 11 10 8 6 4 3 2 2 2 2 3 3 2 2 2 2 2
14 11 9 8 8 8 7 7 5 6 8 7 8 7 7 9 8 8 8 8 8 9 11 13 14 13 11 11 9 7 10 13 12 9 8 13 18 19 17 15 15 15 15 14 14 13 15 17 18 19 19 19 20 20 21 22 22 21 21 20 19 18 17 15 14 13 12 12 11 10 9 9 8 8 8 8 8 8 9 9 10 10 8 6 4 3 2 1 2 3 5 5 3 2 2 1 1
15 13 11 9 8 7 7 7 3 4 8 8 8 6 7 8 8 8 7 7 7 9 11 12 12 12 11 10 9 9 12 14 9 4 7 15 19 18 17 16 16 16 15 15 15 14 15 18 19 19 19 20 20 20 20 21 21 21 21 20 19 17 16 14 13 12 12 11 10 10 9 8 8 8 8 8 9 9 9 9 9 9 8 7 5 3 2 2 3 6 6 5 4 3 1 3 3
15 14 13 10 8 7 6 5 3 4 9 9 7 6 7 7 7 7 6 7 7 8 9 10 10 10 9 9 10 10 13 14 7 3 7 16 18 16 16 17 17 16 16 15 15 15 16 18 19 19 19 19 20 20 20 20 20 21 21 20 19 17 15 13 12 12 11 10 8 8 9 8 8 8 8 9 9 9 9 8 8 9 10 8 6 4 3 3 6 7 6 5 4 2 2 3 4
15 15 14 12 9 9 6 3 3 5 8 8 6 6 7 7 8 8 7 7 7 7 8 8 8 8 7 8 10 9 10 13 8 4 8 16 18 16 16 16 17 16 16 16 16 16 17 19 19 19 19 19 19 19 20 20 20 20 20 19 18 16 14 12 11 11 11 8 6 6 8 8 8 8 9 10 10 10 9 9 8 9 10 9 7 6 5 5 7 7 6 5 3 2 1 3 4
15 15 15 13 12 12 9 5 7 8 8 8 6 6 7 8 8 7 7 7 7 7 7 7 7 6 5 6 8 8 9 10 8 6 10 18 18 16 15 16 16 16 16 16 16 17 18 20 19 19 19 19 19 19 20 20 19 19 18 17 16 14 12 11 10 10 10 8 6 5 6 7 8 9 10 11 11 11 11 10 10 10 11 10 8 6 5 7 8 7 7 6 4 2 0 2 3
15 14 14 13 13 12 10 8 9 8 7 8 7 6 7 8 7 7 7 7 7 7 7 7 7 6 4 4 6 7 8 8 8 8 12 19 19 16 16 15 16 16 16 16 16 17 19 21 20 19 19 19 19 19 20 20 19 18 17 16 15 13 11 9 9 9 8 7 6 5 5 6 7 7 8 10 12 13 13 13 12 11 11 11 10 7 6 7 8 7 7 6 5 3 2 0 2
15 13 14 12 11 10 10 9 9 8 6 8 9 7 7 8 7 7 7 7 7 7 7 6 6 6 3 3 5 7 8 8 8 8 13 20 19 16 16 15 15 15 16 17 17 18 20 22 20 19 19 19 19 20 20 20 19 18 17 16 14 12 10 8 8 8 8 7 5 5 4 5 5 5 7 10 12 14 14 15 14 12 11 12 10 8 7 8 8 7 6 6 5 3 2 1 2
15 14 14 11 8 9 11 10 9 9 6 7 9 8 8 7 6 6 6 6 6 6 6 5 5 4 2 1 3 7 9 9 9 9 13 19 19 17 16 15 15 15 17 17 17 18 20 22 21 20 19 19 19 20 20 20 19 18 17 15 13 11 9 8 7 7 7 6 5 4 3 3 4 5 7 9 12 14 15 16 15 13 12 12 10 8 8 9 9 8 7 7 6 4 2 1 2
14 14 13 9 7 10 12 11 9 8 6 6 7 8 8 7 5 5 5 5 5 5 5 4 4 3 2 1 3 6 9 9 10 10 13 19 20 18 17 15 15 15 16 17 17 18 20 22 22 20 19 20 19 20 20 20 19 18 16 15 13 11 9 7 7 7 6 5 4 3 2 3 4 5 7 9 11 13 15 16 16 14 12 11 9 8 7 8 9 9 8 7 7 5 3 2 2
15 15 13 10 9 11 12 11 9 8 7 7 6 7 7 7 6 5 5 5 5 4 4 3 2 2 2 1 3 6 9 10 11 11 14 19 20 18 18 16 15 15 16 17 17 17 20 22 23 22 20 20 20 20 20 19 18 16 16 14 13 11 9 7 7 7 6 4 3 1 2 2 4 6 8 9 11 13 15 17 17 15 13 10 8 7 7 7 8 9 8 8 8 6 4 4 4
15 14 10 9 9 11 11 10 9 8 8 7 6 7 7 8 8 7 6 5 5 4 3 4 3 4 3 2 3 6 9 10 12 13 16 20 20 19 18 17 16 16 16 17 17 18 19 21 23 23 21 20 20 19 19 19 18 16 15 14 12 10 9 7 7 7 6 5 3 1 3 3 4 5 7 9 11 13 15 17 18 17 13 9 9 8 7 6 8 9 8 9 9 6 4 5 5
15 14 9 8 9 9 9 9 9 8 7 7 6 7 7 7 7 7 6 5 4 4 4 5 5 5 4 3 3 6 9 11 13 15 19 20 20 20 19 18 17 17 17 18 18 18 19 21 23 23 22 21 20 20 19 19 18 16 15 14 12 10 9 8 8 7 7 6 4 3 4 5 5 5 6 8 11 13 15 16 17 17 14 10 9 8 7 7 8 8 7 8 7 5 4 4 5
14 14 11 9 9 9 8 8 9 8 7 6 6 7 7 6 6 6 6 4 3 3 2 2 3 3 2 2 2 4 8 11 14 17 20 20 20 20 20 19 18 17 18 18 19 19 19 20 22 23 23 22 22 21 21 20 19 17 15 14 12 11 10 9 9 8 7 6 5 5 5 6 6 6 6 8 11 13 14 16 16 16 16 13 10 7 6 7 8 8 7 7 6 3 3 3 4
13 14 12 8 9 10 9 9 9 9 8 7 7 7 7 6 6 5 4 3 2 3 2 2 2 2 1 2 1 3 7 10 14 18 21 21 20 20 19 19 18 18 18 19 20 20 19 20 21 22 23 23 22 22 22 21 19 18 16 14 13 12 11 11 10 9 7 6 6 6 6 6 7 7 6 8 10 13 14 15 15 16 16 13 9 7 6 6 6 6 6 6 4 4 3 3 4
13 15 11 8 10 10 9 9 8 8 7 7 8 9 9 8 7 6 5 3 2 2 2 2 2 2 2 2 2 5 9 11 15 18 20 20 20 20 19 19 19 18 19 19 20 20 19 19 20 22 24 24 22 22 22 21 20 18 17 15 14 13 13 12 11 10 9 8 7 8 8 7 8 8 8 9 11 12 13 14 15 16 16 14 10 7 6 5 5 5 6 5 4 4 3 4 5
13 13 9 8 10 10 9 9 8 8 7 7 9 10 11 10 9 7 6 5 3 3 2 2 1 1 1 1 2 7 11 12 13 16 18 19 20 20 19 19 20 20 20 20 20 20 19 19 20 21 23 24 23 22 22 21 20 19 18 16 15 15 14 13 12 11 10 9 9 9 9 9 9 9 10 11 12 13 13 14 15 15 16 16 13 9 5 5 5 4 5 6 6 5 3 3 4
14 11 8 10 10 8 9 8 8 9 6 7 9 11 12 11 10 8 7 5 4 4 3 3 1 1 1 1 3 7 11 12 12 14 16 17 19 19 19 19 20 20 19 19 20 19 19 19 20 21 22 24 24 23 22 22 21 20 19 17 17 16 15 15 14 12 12 11 10 11 11 10 10 10 11 12 13 14 14 14 15 15 15 15 15 11 6 5 5 4 5 6 7 6 5 6 4
13 9 7 10 8 8 8 8 9 8 7 8 9 10 11 11 10 9 7 6 5 4 3 3 3 2 1 1 3 5 10 12 12 13 15 16 18 18 19 19 19 19 19 19 19 19 19 19 20 21 22 22 23 24 22 22 22 21 20 19 18 17 16 16 15 14 13 12 12 12 12 12 12 12 12 13 14 14 14 14 14 14 14 14 14 13 7 5 5 4 5 7 8 8 7 7 6
11 9 8 8 7 8 7 7 9 8 8 10 10 10 10 10 10 10 8 7 7 5 3 2 2 2 2 2 4 5 7 11 12 13 15 16 18 19 19 19 19 18 18 18 19 19 19 19 20 20 21 21 22 23 22 22 22 21 21 20 19 18 17 16 15 14 14 14 13 13 14 14 14 14 13 14 14 14 14 14 13 13 13 13 13 13 11 7 6 5 5 6 8 9 8 7 7
10 8 6 6 6 7 5 7 9 8 9 9 10 10 10 10 10 9 9 8 7 6 5 3 0 1 2 3 4 4 6 9 12 13 15 16 18 20 21 20 20 18 18 18 18 19 18 18 19 20 20 20 20 22 21 22 22 21 21 20 19 18 17 17 16 15 15 15 14 15 16 16 15 15 15 14 14 14 14 14 13 12 13 13 12 12 13 11 10 8 6 7 9 11 10 9 9
9 7 5 5 6 6 4 7 9 8 8 8 8 8 9 10 10 10 10 9 6 6 6 3 0 1 1 3 5 5 6 8 11 13 14 16 17 19 20 20 20 19 19 18 18 18 18 18 18 19 19 19 19 20 20 21 21 21 21 20 19 18 17 17 16 16 16 16 16 16 17 17 16 16 15 14 14 14 13 13 11 11 12 13 12 11 11 12 12 11 10 10 12 12 11 9 8
8 6 6 6 6 6 5 6 7 9 8 7 7 7 8 9 10 10 9 9 7 6 5 3 1 2 2 4 5 5 7 9 11 13 14 16 18 19 19 20 20 20 19 18 18 18 18 18 18 18 19 19 19 20 20 20 21 21 21 20 19 18 17 17 16 17 18 17 17 17 17 17 16 15 14 14 13 13 13 12 11 10 10 11 11 10 10 10 10 9 9 10 12 12 9 8 8
8 6 5 6 5 5 5 4 5 8 8 6 6 6 7 8 10 10 8 8 8 7 6 3 2 3 4 4 3 3 6 9 10 12 14 15 17 20 20 20 20 20 19 19 19 19 19 18 19 19 19 19 20 20 20 20 21 21 21 20 19 19 18 18 18 18 18 18 18 17 17 17 16 15 14 13 13 12 12 11 10 9 9 11 11 10 9 8 9 8 6 7 8 9 8 8 8
7 6 4 5 5 4 5 4 5 7 7 6 7 6 7 8 9 9 8 8 8 8 7 4 2 4 4 4 3 2 3 5 6 8 12 14 16 19 19 19 19 20 20 20 21 20 20 20 20 20 19 19 20 20 20 21 21 21 22 21 21 21 19 20 19 18 19 19 19 18 17 17 16 16 15 14 13 12 12 11 10 9 9 10 11 10 8 7 8 8 6 5 6 7 7 7 7
4 5 3 4 3 3 4 3 4 5 5 6 6 6 8 8 7 8 8 8 8 9 8 5 3 3 4 5 5 4 2 2 5 5 10 13 14 16 16 18 19 20 20 21 22 22 21 21 21 20 20 20 20 21 21 21 22 22 23 23 23 22 22 22 21 20 20 20 21 20 18 17 17 16 16 15 13 12 12 11 10 9 9 10 10 9 8 7 8 8 7 6 6 6 5 5 6
4 3 1 2 2 1 3 2 3 3 4 6 5 5 8 7 6 7 8 8 8 9 10 7 5 4 5 6 6 6 6 2 3 4 8 12 13 14 15 17 19 19 20 21 22 22 23 23 22 21 21 21 22 22 22 23 23 24 24 25 25 24 24 24 23 22 22 22 23 22 19 18 18 17 17 15 15 14 13 13 11 10 9 10 10 9 9 8 7 8 8 8 7 7 6 6 5
4 3 2 2 2 1 1 2 3 2 3 5 5 5 7 5 6 7 6 7 9 11 12 10 7 6 6 6 6 6 7 4 2 1 5 11 14 15 16 17 19 19 19 20 22 23 24 24 23 23 23 23 24 24 24 25 25 26 26 26 26 26 25 25 24 24 24 24 24 23 21 20 19 18 18 17 16 16 15 14 12 11 10 11 11 9 10 9 7 6 7 8 8 8 9 8 7
3 3 2 2 2 3 2 2 3 2 1 4 5 5 5 3 5 7 7 8 9 11 13 11 10 7 6 6 7 7 8 6 4 2 2 8 11 14 18 19 20 20 20 21 21 23 24 24 25 24 24 25 25 25 26 26 27 27 27 27 27 26 25 26 25 25 25 25 24 24 23 21 20 20 19 18 18 17 16 15 13 12 12 11 11 10 10 10 8 6 6 6 6 8 10 10 8
2 1 2 1 1 3 4 4 4 3 1 3 5 5 4 3 5 7 7 8 9 11 12 11 9 7 6 6 7 8 10 10 6 4 2 4 6 11 17 19 20 19 19 19 18 20 22 23 24 24 24 24 23 24 24 25 26 27 28 28 27 26 26 26 26 26 25 25 24 24 24 22 21 21 20 19 19 18 17 15 14 14 13 12 12 11 10 11 8 6 6 5 4 6 8 9 8
1 1 1 2 2 2 5 6 5 3 3 2 4 5 3 3 4 6 6 7 9 10 11 11 9 8 7 7 8 8 8 9 8 6 4 1 2 6 13 15 18 18 18 18 17 17 18 19 20 20 21 22 23 23 23 24 26 26 27 28 27 27 27 27 27 26 25 24 24 24 24 23 21 21 21 20 19 19 18 16 15 16 14 12 12 12 10 11 9 7 6 6 5 5 6 8 6
3 4 2 4 3 1 4 7 6 4 4 4 1 3 3 3 3 5 6 7 8 9 10 10 9 9 9 8 8 8 7 7 7 7 7 5 4 1 8 12 14 16 15 15 15 15 15 17 17 17 19 21 22 23 23 24 25 25 26 27 26 26 27 27 27 26 25 25 24 23 23 22 21 20 20 19 19 19 19 18 16 16 15 13 13 12 11 11 11 8 6 6 6 5 5 7 5
7 6 4 3 1 1 3 6 8 7 5 5 2 0 2 3 3 4 5 6 7 8 10 10 9 8 9 9 9 9 8 6 6 6 6 5 5 3 4 8 9 12 13 13 13 14 15 16 16 16 18 19 21 22 23 24 24 25 25 25 25 24 23 24 25 25 25 24 24 23 22 21 20 20 19 19 18 19 19 18 17 16 15 14 14 13 12 11 11 10 7 6 6 5 5 7 6
8 6 4 3 3 3 3 4 8 9 7 7 6 3 1 2 2 3 5 6 7 8 9 9 9 8 8 9 9 9 8 7 6 5 5 5 5 4 2 3 5 7 9 10 11 12 14 14 13 14 16 18 20 21 22 22 23 23 23 24 24 22 21 21 23 23 22 22 22 22 21 20 19 19 19 18 18 18 19 18 18 17 16 16 15 14 13 12 12 11 9 7 7 6 5 6 7
5 5 3 2 3 2 3 4 6 8 8 6 6 4 2 2 2 3 6 7 7 8 8 8 8 8 8 8 8 8 9 8 8 8 7 6 6 6 3 0 2 4 5 7 8 8 10 12 12 13 14 16 18 19 20 21 21 21 21 22 22 21 20 21 21 20 20 21 21 21 21 20 20 20 19 19 18 18 18 18 19 18 18 18 16 15 14 13 13 13 11 9 8 7 6 6 6
4 6 6 5 3 1 4 7 7 8 8 5 3 3 2 1 2 3 5 6 7 8 8 7 7 8 8 8 8 8 8 9 10 11 9 8 7 7 5 3 1 1 2 4 5 6 8 10 11 12 13 15 16 17 18 19 20 20 21 21 21 21 21 20 20 19 20 20 20 21 22 21 20 20 20 19 19 19 18 18 19 19 19 19 18 16 15 14 14 13 13 11 9 8 7 6 6
8 8 7 7 4 1 5 9 11 11 9 6 5 3 2 2 1 1 3 5 6 8 8 7 7 7 8 8 8 8 8 9 10 11 11 10 9 8 8 6 3 1 1 2 2 4 6 8 9 11 12 13 14 15 16 17 18 19 20 21 21 21 21 20 20 19 20 20 20 22 23 22 20 19 20 20 20 19 19 19 19 19 19 20 19 18 16 15 15 14 13 12 11 9 8 6 6
10 9 8 6 2 3 6 10 12 12 10 8 5 3 3 3 2 1 3 4 4 6 7 7 7 7 7 8 8 8 8 9 10 10 10 10 10 9 9 8 6 4 2 1 0 2 4 6 8 11 12 13 14 15 15 14 14 17 18 19 20 21 20 21 20 20 21 20 20 20 23 23 20 19 20 20 20 20 19 20 19 19 20 20 20 18 17 16 16 15 14 13 12 11 9 8 7
11 10 9 5 4 5 7 10 10 10 11 9 6 4 4 4 2 2 3 2 2 4 6 6 6 6 7 7 8 8 7 8 8 8 8 9 9 10 10 9 8 7 5 4 2 1 1 3 5 8 10 12 13 13 12 11 12 14 15 17 18 19 20 20 19 20 20 19 18 19 21 22 20 19 20 20 21 20 19 20 20 20 20 20 20 19 18 17 17 16 16 14 13 12 11 9 8
12 11 8 6 7 5 7 11 11 10 9 8 9 5 2 2 3 2 2 2 1 3 5 5 5 5 6 7 7 7 7 7 7 7 6 7 8 8 9 9 9 8 7 6 5 4 2 2 3 5 7 9 11 11 10 11 12 13 13 15 15 16 18 19 19 20 20 19 18 19 20 21 20 21 22 22 22 19 18 19 19 20 20 20 20 19 19 17 16 17 16 16 15 13 12 11 10
11 11 9 6 7 6 7 11 13 11 7 9 9 5 2 2 3 2 1 2 2 3 4 5 4 4 5 5 6 7 7 7 7 6 6 6 6 7 8 8 8 8 8 7 6 5 5 4 4 4 5 7 8 10 10 11 12 12 13 14 14 14 16 18 19 20 21 20 20 20 21 21 21 22 23 24 22 18 17 18 18 20 20 20 20 20 19 18 17 17 17 17 16 15 14 13 11
9 8 8 6 8 8 6 9 14 12 9 12 10 4 3 4 4 3 3 2 3 3 3 3 2 2 4 5 5 5 6 6 6 6 6 6 6 6 6 6 7 8 9 9 7 7 7 7 7 6 6 7 8 9 9 10 11 12 13 13 14 14 15 16 18 20 21 21 21 21 21 22 22 23 24 25 23 18 16 17 18 19 20 20 20 21 20 18 17 17 18 18 17 16 16 15 13
8 5 6 7 10 10 6 9 13 9 7 13 13 7 2 4 6 5 4 3 3 3 1 1 1 2 3 4 4 3 3 4 4 4 5 5 5 6 6 6 7 7 8 8 8 8 8 8 9 8 8 9 9 9 9 9 9 10 11 12 12 13 14 16 18 20 21 21 20 20 21 22 24 24 23 25 25 20 17 18 18 19 20 21 20 21 20 19 18 18 19 19 19 18 18 17 15
6 3 5 8 12 11 10 11 10 5 6 10 12 9 5 4 9 9 6 5 3 4 2 2 1 1 1 2 3 2 2 3 4 5 5 5 6 6 7 7 7 7 7 8 8 8 8 9 9 10 10 10 10 11 11 11 11 11 11 12 12 12 14 15 17 20 21 21 20 21 23 23 24 25 24 23 25 21 17 17 18 19 20 21 21 22 21 20 19 19 20 20 20 20 19 18 17
5 5 4 9 12 11 11 10 7 5 6 7 10 10 7 4 9 11 7 7 5 4 5 3 2 2 2 1 1 1 2 3 4 5 5 6 6 6 6 7 7 7 7 8 8 8 9 10 10 10 11 11 12 12 13 13 13 13 12 12 12 12 13 14 15 17 19 19 19 21 23 23 25 26 24 22 23 22 19 17 18 19 19 21 22 22 22 21 20 20 20 21 21 22 21 20 18
7 7 5 11 11 10 10 7 5 6 7 6 9 11 7 3 8 10 8 8 8 6 6 5 4 3 2 1 1 1 2 3 4 4 5 6 7 7 8 9 9 9 9 9 9 9 9 10 10 11 11 12 13 14 14 14 14 14 14 13 13 13 13 14 14 16 17 17 18 19 20 21 23 24 24 24 23 22 20 19 19 19 19 21 22 23 23 22 21 21 21 21 23 23 23 22 20
8 6 9 12 10 9 8 6 6 6 6 6 8 9 6 3 6 9 9 8 9 8 7 6 5 4 3 2 2 3 3 3 3 4 5 7 8 10 10 11 11 11 12 11 11 10 10 10 10 11 11 12 13 13 14 15 15 15 16 16 16 15 15 15 15 15 16 17 18 19 19 19 20 21 23 25 24 21 21 21 20 20 20 22 22 23 23 22 22 21 21 23 24 24 24 23 22
7 8 12 12 9 8 6 6 7 6 3 5 7 7 6 6 4 9 10 9 9 9 7 7 6 5 4 4 4 4 3 2 3 5 7 10 11 12 12 12 11 11 11 11 11 11 11 11 11 10 10 11 12 12 13 13 14 15 16 17 17 18 18 17 16 16 17 17 18 18 19 19 20 20 22 23 22 22 23 23 22 22 23 23 23 23 23 23 23 22 22 23 24 25 24 24 23
9 11 13 10 7 7 5 5 6 5 2 5 5 6 7 6 4 9 11 9 7 7 8 8 7 6 5 4 5 5 3 1 3 6 9 11 13 14 14 13 12 11 11 10 11 11 11 11 12 12 11 11 12 12 12 12 13 14 15 16 17 18 19 19 18 18 18 18 19 18 18 19 20 21 21 22 22 22 24 26 25 24 24 25 26 25 25 25 24 23 23 24 25 25 25 25 25
13 13 14 11 5 5 5 3 4 4 3 5 4 5 5 4 6 9 9 7 6 7 9 9 8 7 5 5 5 4 3 2 4 7 10 12 14 15 14 13 12 12 11 11 12 12 12 13 13 13 13 13 13 13 13 13 13 14 14 15 16 17 18 19 19 19 20 20 21 21 21 20 20 20 21 22 22 22 24 27 29 26 25 27 28 28 27 27 26 25 24 24 25 25 25 25 25
13 12 13 12 8 7 5 3 4 2 4 5 5 5 3 4 7 8 8 8 7 7 9 10 8 7 6 5 4 4 4 4 7 9 12 14 14 13 12 10 10 10 10 11 12 13 14 14 14 14 14 14 13 13 13 14 14 15 15 15 16 16 17 18 19 20 21 21 22 22 22 22 22 21 21 21 22 22 23 27 29 27 27 28 28 29 30 29 29 28 26 25 25 26 26 26 26
12 12 13 12 8 7 6 4 3 3 2 5 6 4 2 5 9 8 9 8 8 8 10 11 9 7 5 4 4 4 5 7 9 12 14 14 12 11 11 10 7 7 8 9 10 11 12 13 14 14 14 14 14 14 14 15 15 15 16 16 17 17 18 18 19 20 21 22 22 22 22 22 23 23 22 21 21 22 23 25 27 28 29 31 30 30 31 31 31 29 27 26 25 26 27 26 26
9 12 13 11 8 6 6 4 2 5 6 3 4 5 4 6 8 9 10 9 9 10 11 11 10 8 5 4 4 5 6 9 11 13 14 14 12 12 12 11 9 7 6 7 8 9 9 10 11 13 14 14 15 15 16 16 17 17 18 18 18 18 18 19 20 20 21 22 23 23 22 22 23 23 23 23 22 22 23 25 26 27 30 32 33 32 31 32 33 30 29 28 26 26 27 28 27
8 10 10 10 9 7 6 5 3 6 6 2 4 6 6 6 7 10 13 11 12 12 10 11 10 7 5 4 5 5 7 10 13 14 14 14 15 15 14 12 10 8 7 7 7 8 8 9 10 11 13 14 15 16 16 17 18 18 19 20 20 20 20 20 20 21 21 22 23 24 24 24 24 24 25 24 24 24 25 25 26 28 29 32 34 33 31 32 33 32 31 30 28 27 28 28 28
11 9 7 8 8 6 6 6 5 5 6 2 4 6 8 7 8 12 14 12 13 13 11 11 10 7 6 5 5 6 8 11 13 14 15 16 16 16 15 14 13 11 10 9 8 8 8 9 10 11 12 14 15 16 17 18 18 19 19 20 21 22 22 22 22 22 21 22 22 23 25 26 26 26 26 26 25 25 25 25 26 27 29 31 33 34 33 33 34 34 34 32 30 29 29 29 29
10 9 8 9 8 6 5 6 6 6 6 3 3 5 6 6 7 13 15 11 14 15 13 12 11 7 6 5 5 7 9 10 12 15 16 17 17 17 17 16 15 15 14 13 13 12 12 12 12 12 13 13 14 15 16 17 18 19 19 20 21 22 23 23 24 24 23 23 23 23 24 25 27 28 28 28 28 27 26 25 25 25 27 29 31 34 35 34 34 35 34 34 33 32 30 29 29
9 9 8 7 6 4 4 6 7 8 7 4 4 4 3 5 7 11 13 11 13 15 13 12 10 8 6 6 6 7 9 10 12 15 17 18 19 19 18 18 17 17 17 17 17 17 18 18 17 17 17 16 16 16 16 16 17 17 18 20 21 22 22 23 24 25 25 25 24 24 23 24 26 27 28 29 29 29 28 27 26 26 26 27 30 33 34 35 36 36 35 35 35 34 32 29 30
12 10 9 7 6 6 6 6 6 6 8 6 7 6 3 4 5 8 11 11 13 15 12 10 9 8 7 6 7 7 8 9 12 15 17 18 19 19 19 19 18 18 19 19 19 20 20 21 21 21 21 21 21 20 20 19 18 18 18 18 20 21 22 23 24 24 25 26 26 25 25 25 25 26 28 28 28 29 29 29 27 27 28 28 29 31 33 36 38 37 35 35 35 35 32 29 30
Wind_Direction
44 45 49 57 69 80 88 87 83 87 83 80 81 83 96 101 109 110 118 121 128 133 131 135 136 136 139 145 134 119 152 159 159 175 187 182 176 172 175 170 171 170 168 171 168 165 159 156 156 153 147 145 143 143 145 145 146 146 142 137 134 132 130 127 125 123 121 117 111 104 98 91 81 71 63 57 48 42 38 33 30 28 30 34 45 52 43 26 24 33 64 71 94 143 144 181 206
42 45 52 64 76 84 91 91 103 109 97 89 82 87 99 99 103 107 115 120 129 132 129 135 131 125 129 141 135 116 143 155 159 181 189 177 175 174 176 172 171 172 169 170 171 169 164 160 158 154 149 147 145 145 147 147 147 145 141 138 136 133 129 125 122 122 122 113 103 93 88 84 75 64 55 47 37 32 27 26 23 23 24 28 43 54 40 25 16 23 46 46 44 86 140 161 167
41 46 53 64 74 85 95 82 75 115 103 94 88 92 100 92 96 107 111 116 127 129 127 133 132 124 123 134 141 135 145 152 151 172 183 176 175 173 175 174 172 172 170 171 172 171 168 165 160 156 152 150 148 148 148 148 147 143 141 139 138 134 129 124 121 124 122 111 95 79 77 80 71 57 43 33 25 20 18 18 15 17 19 21 33 38 17 6 29 36 40 34 44 70 146 169 177
41 44 50 58 68 80 85 62 20 70 89 91 98 99 101 99 99 106 107 116 127 132 132 132 137 135 128 138 143 138 154 166 163 138 165 174 174 173 175 175 174 173 170 171 173 171 171 169 163 159 156 153 151 151 151 149 147 144 142 140 139 135 130 125 123 127 125 118 98 74 73 76 63 46 33 25 19 14 12 12 11 13 15 15 19 22 0 0 36 45 44 34 40 67 146 173 189
42 43 48 55 67 71 59 47 26 53 81 80 97 108 104 107 105 108 108 118 131 135 139 138 140 139 135 146 148 144 164 180 191 170 163 172 172 174 177 177 178 175 172 172 173 171 173 174 168 162 159 157 155 154 152 151 149 146 143 140 139 136 133 127 124 129 129 128 113 84 78 71 54 43 37 31 24 19 13 12 12 13 12 8 10 11 350 2 34 44 50 43 29 36 145 174 193
41 41 48 57 67 68 52 59 58 58 92 86 91 115 108 110 108 104 102 112 129 132 140 148 146 145 151 159 161 164 169 175 182 179 170 170 171 175 178 180 181 176 174 174 174 173 175 177 172 167 164 161 159 157 155 153 152 149 145 141 141 141 141 133 125 129 133 134 123 98 84 66 52 49 44 36 31 26 21 16 14 14 8 2 7 3 348 2 22 35 49 52 36 17 43 170 187
37 37 45 56 59 58 51 59 62 60 99 102 104 119 110 113 110 99 97 105 119 127 132 147 152 155 164 170 182 181 174 173 173 174 172 170 171 174 177 182 184 179 177 176 175 176 178 179 177 172 168 165 163 160 158 156 156 153 148 145 147 149 149 142 131 133 139 139 127 105 86 65 55 52 40 34 31 28 25 21 16 14 6 0 359 348 354 4 5 22 50 60 49 15 344 194 202
34 35 45 55 52 51 56 58 62 67 94 113 118 127 121 118 117 106 99 101 110 120 125 136 148 162 169 154 188 185 173 173 172 175 173 173 173 173 177 182 184 180 180 179 179 179 180 182 180 177 172 169 167 164 162 160 159 156 154 153 155 157 156 149 145 147 150 149 136 111 86 65 53 43 32 28 27 25 24 22 17 11 5 1 353 339 354 1 360 17 40 51 45 24 1 342 261
33 36 42 46 48 54 60 59 61 72 90 119 126 132 127 120 121 109 99 99 108 115 120 128 135 169 210 146 188 188 180 178 178 183 177 177 176 174 177 182 185 184 184 184 183 183 182 183 183 182 177 173 171 169 167 164 162 161 161 160 162 166 165 160 162 164 161 161 146 112 80 54 39 29 23 21 20 21 21 21 17 9 3 0 349 336 351 0 4 15 17 21 21 25 47 336 272
35 37 37 34 44 56 58 58 58 64 80 111 129 132 125 118 111 101 104 108 112 114 114 128 137 169 219 191 201 195 191 190 189 191 183 181 178 175 179 182 185 187 190 189 188 188 185 186 185 185 182 178 177 174 172 170 168 168 167 166 169 175 177 177 181 179 174 172 156 112 58 30 23 23 20 17 16 17 17 17 15 8 1 354 344 340 357 4 6 13 5 1 8 13 26 347 291
35 38 41 41 47 55 56 57 59 60 72 91 115 127 120 117 117 115 127 127 125 126 117 131 160 174 161 182 214 196 195 195 192 193 186 183 179 177 181 184 187 187 191 191 191 192 189 188 187 188 187 182 181 179 178 176 174 175 175 174 178 183 188 194 198 194 189 188 179 129 8 1 6 18 20 17 15 15 15 13 12 6 356 346 346 352 356 2 7 11 2 354 1 5 14 359 330
36 40 41 42 47 53 55 58 60 61 66 77 99 121 118 112 117 126 137 147 147 149 152 142 173 198 166 174 214 185 187 191 187 188 183 182 180 179 181 185 190 188 188 190 192 196 194 192 189 190 191 188 186 185 184 183 181 183 183 182 186 193 197 206 213 210 204 206 207 245 317 327 345 4 13 15 13 12 13 10 8 2 350 341 351 356 347 355 4 6 5 357 358 2 13 4 338
39 43 45 43 48 51 55 58 55 61 66 73 96 115 121 116 116 123 129 143 154 178 194 161 176 198 169 151 181 171 177 181 179 179 177 180 181 180 183 186 191 191 189 189 191 198 197 195 193 192 192 191 191 190 190 190 188 189 190 191 195 202 207 216 223 223 220 222 228 252 297 312 325 343 358 7 7 6 7 5 4 357 343 338 352 357 345 346 353 358 6 1 357 4 12 2 344
37 47 58 49 50 51 56 57 51 63 69 72 91 102 111 115 118 127 129 133 163 191 200 159 171 177 148 143 149 165 173 174 171 171 173 177 181 181 184 186 191 193 193 193 193 199 199 197 196 195 195 194 194 194 195 196 195 195 197 200 203 209 216 224 229 234 235 235 246 262 287 303 316 329 343 354 356 357 359 358 359 353 339 338 350 354 347 342 344 351 357 354 344 339 352 348 347
39 57 65 53 53 53 55 57 55 65 69 73 83 90 94 96 96 102 116 136 176 171 109 95 139 123 148 161 140 174 173 170 167 168 172 177 179 181 185 187 191 194 195 196 197 200 199 199 199 197 199 200 198 197 199 201 201 201 202 207 210 215 222 228 233 239 243 245 253 265 280 294 308 320 334 343 344 346 350 349 351 350 337 335 345 345 344 345 344 345 342 344 343 340 341 334 344
44 63 63 54 55 51 52 49 51 64 68 79 81 80 77 74 74 71 76 86 128 146 108 96 131 138 181 171 156 171 170 172 170 170 176 179 179 180 186 189 192 195 197 198 199 201 199 200 201 200 202 205 204 203 204 205 207 208 207 212 216 221 227 231 235 240 245 248 254 265 276 287 301 311 323 330 331 334 340 340 343 345 337 334 341 339 335 341 346 342 340 351 6 7 350 328 333
52 65 57 56 52 45 51 39 45 65 69 82 85 83 75 68 67 68 73 72 81 102 90 91 113 191 228 229 172 168 171 181 182 179 183 183 180 182 186 190 193 196 198 199 200 202 200 200 202 202 205 207 209 208 208 209 212 213 213 216 220 224 229 233 236 240 245 248 254 265 272 282 292 301 311 316 319 324 329 333 336 340 339 335 334 339 343 343 346 343 350 1 3 7 5 342 328
57 61 49 56 47 43 55 47 58 69 70 84 86 83 80 72 63 64 69 64 76 86 76 77 41 354 318 277 189 177 177 191 200 194 192 188 184 186 189 193 196 197 199 200 200 202 201 201 202 204 207 209 211 212 213 213 216 218 218 220 223 226 231 236 238 240 245 248 254 263 269 276 284 292 301 305 309 316 321 327 331 334 339 337 331 331 340 345 341 346 3 9 4 13 21 4 346
58 63 52 52 46 47 56 62 74 79 78 86 87 81 80 74 64 67 67 51 61 73 54 53 41 1 313 191 191 198 189 194 210 208 200 193 190 190 193 197 198 198 200 201 202 202 203 204 203 205 208 210 212 214 216 217 220 222 222 223 224 228 233 238 241 244 247 250 255 263 268 272 278 285 292 298 302 308 315 321 326 329 336 339 330 320 327 348 346 359 16 16 12 16 17 5 357
62 66 55 45 47 58 59 68 79 86 81 83 86 81 76 73 67 70 73 53 41 49 36 22 22 326 271 215 194 204 202 198 207 215 208 198 194 195 196 199 199 200 202 202 204 204 204 206 206 206 207 209 211 214 218 220 223 225 225 226 226 228 233 238 243 246 249 252 257 263 267 271 276 282 287 293 297 303 310 316 322 327 333 337 329 322 329 351 358 6 27 33 23 14 12 4 2
64 59 54 45 57 73 71 73 78 84 85 88 87 82 76 74 71 68 73 64 36 36 43 38 18 277 268 252 228 203 208 205 203 210 214 208 201 199 200 200 200 202 203 203 205 207 207 208 210 209 208 208 210 214 219 221 224 226 227 228 228 229 232 238 244 248 251 254 259 263 267 272 276 280 285 288 292 298 305 312 319 325 330 333 331 326 329 343 354 358 18 34 25 14 7 358 358
61 47 59 59 75 91 80 81 84 79 86 97 95 90 81 72 71 68 69 72 57 48 51 51 105 242 236 240 232 202 197 205 206 208 214 215 210 206 204 202 202 203 204 204 206 208 209 210 212 211 210 210 210 215 218 221 224 227 229 231 231 234 236 240 246 250 254 257 261 265 269 273 275 277 281 284 287 293 300 306 312 318 323 328 329 325 327 340 348 351 6 14 12 12 4 355 358
68 48 66 68 84 99 82 90 83 67 80 99 99 97 85 71 67 65 65 72 68 57 52 44 9 308 298 263 239 208 199 199 203 208 213 214 212 211 208 206 205 205 205 205 207 209 210 211 214 213 213 212 211 215 219 221 225 227 232 235 236 238 240 243 247 252 256 259 262 265 269 272 273 275 277 279 283 288 295 299 303 311 317 319 321 320 321 337 341 343 2 5 6 9 1 354 356
78 59 69 72 82 96 86 89 66 67 85 94 93 95 86 75 67 62 63 67 64 56 49 46 26 351 337 319 309 254 226 212 205 209 216 214 211 213 210 209 209 206 206 209 209 211 211 212 215 216 215 216 215 217 220 223 226 229 233 237 240 241 241 243 246 251 256 259 260 263 267 270 271 272 273 275 279 284 288 291 297 304 309 310 313 311 313 329 332 331 353 3 6 3 355 351 352
80 74 74 71 73 91 94 88 62 71 81 78 85 91 83 76 68 63 62 60 55 53 48 48 48 16 357 349 338 293 253 239 232 219 223 219 212 214 209 207 209 208 208 211 213 212 212 212 215 217 217 220 221 220 223 225 228 232 235 237 240 241 242 243 244 248 254 259 260 261 263 267 269 269 270 271 274 277 279 282 288 294 299 300 303 303 303 316 320 322 341 356 356 352 350 349 352
89 88 80 73 68 89 108 106 75 69 67 69 70 79 83 75 66 61 56 52 45 45 40 29 27 13 354 346 321 311 4 276 259 246 233 224 213 212 208 204 206 208 210 212 214 214 214 215 215 217 219 222 225 226 227 228 231 234 237 240 242 243 244 244 245 247 251 255 259 259 260 263 265 266 267 268 269 269 270 273 275 282 289 290 292 295 294 299 311 318 329 340 347 347 347 351 356
81 90 123 103 81 94 121 125 99 79 61 66 59 68 83 72 64 66 54 47 43 42 34 19 9 359 351 334 311 334 14 359 254 253 236 224 212 209 209 206 203 206 211 214 216 216 216 217 217 217 220 223 225 228 230 231 233 235 238 240 242 244 245 246 246 246 248 251 255 257 258 259 260 262 263 264 264 262 265 268 267 272 280 282 284 285 285 285 297 310 318 325 339 349 344 349 2
61 78 162 177 168 223 166 150 141 105 37 54 61 55 66 68 65 61 48 41 40 43 38 29 25 10 2 342 319 351 16 6 332 299 227 221 215 210 208 206 205 206 209 213 217 219 218 217 218 218 220 222 224 226 229 231 234 235 237 239 241 243 245 247 247 246 247 248 252 256 257 256 257 259 260 260 261 260 261 263 262 265 270 274 276 275 276 275 282 299 311 316 330 346 342 345 359
35 78 161 221 209 245 253 188 186 157 27 28 54 43 37 63 64 46 36 41 41 44 40 33 34 23 16 3 340 0 18 10 7 44 172 210 214 215 212 207 208 209 211 217 218 218 219 218 218 219 221 224 225 226 228 230 233 235 236 237 240 242 243 246 247 246 246 247 250 253 254 255 254 256 258 258 260 260 259 260 260 261 264 267 270 268 266 266 270 284 296 302 326 337 334 341 353
353 113 159 251 271 255 257 238 220 181 172 345 30 37 14 17 53 45 33 39 40 38 35 27 28 23 14 9 354 359 15 25 44 73 105 203 212 220 218 213 211 214 219 223 221 217 218 221 220 220 225 228 231 234 235 234 236 238 239 237 237 240 242 243 244 243 244 246 248 251 253 254 253 254 257 258 259 259 259 259 259 259 260 262 266 264 259 259 260 269 279 277 298 313 315 328 345
296 242 169 242 234 211 260 255 235 199 203 287 29 39 11 5 43 52 31 29 34 30 28 21 16 16 15 15 10 11 15 27 46 58 51 55 227 226 219 213 212 217 224 226 223 221 225 231 228 227 232 232 234 240 241 240 241 241 244 243 238 237 238 239 240 240 242 243 246 249 253 254 253 254 256 258 257 257 257 256 255 257 257 258 261 261 256 255 254 256 267 266 266 281 298 311 325
229 234 185 225 225 124 283 259 237 222 222 248 29 34 351 351 28 58 41 23 29 26 24 21 14 16 22 22 20 27 29 28 37 43 45 42 31 204 207 208 211 217 224 226 226 229 235 237 233 233 237 237 238 241 240 239 241 242 245 248 246 240 239 240 239 237 239 241 244 247 252 254 254 255 256 258 258 256 255 254 254 256 257 255 256 259 255 252 253 250 252 260 260 261 283 293 294
214 233 213 208 220 157 237 238 242 232 222 243 231 119 329 330 2 61 50 27 32 30 25 22 21 23 26 27 25 30 34 30 30 34 42 45 45 73 174 203 215 221 225 230 232 233 236 237 237 237 238 238 239 240 238 237 239 241 243 248 252 249 246 248 248 244 240 241 243 247 252 255 255 255 256 258 259 257 255 254 254 255 256 255 253 254 254 251 252 251 245 245 252 256 270 281 286
205 227 224 197 215 227 210 224 248 235 215 228 224 215 258 299 325 51 45 29 35 38 33 28 32 35 30 30 29 34 38 33 26 24 35 45 48 56 106 197 219 227 229 235 238 234 232 235 241 245 242 240 242 243 243 243 243 244 245 248 253 252 250 252 254 255 254 252 250 251 254 257 256 254 255 257 259 260 258 255 254 253 253 254 252 251 251 250 250 253 250 241 237 243 260 275 284
206 228 251 241 231 223 173 200 238 226 212 216 220 237 267 294 309 18 30 26 34 42 43 36 35 36 34 35 35 40 46 43 38 35 40 50 49 42 43 171 227 231 239 245 243 235 227 226 232 242 243 241 244 249 251 250 249 248 248 250 252 250 249 250 252 255 258 260 259 259 258 256 257 255 254 256 258 260 261 258 253 251 251 252 252 251 250 249 249 251 251 249 243 241 252 267 280
244 259 284 289 274 156 174 197 206 193 178 163 174 219 247 283 316 18 28 23 27 35 41 36 24 24 33 41 42 44 48 48 46 45 49 54 49 44 48 50 24 252 271 275 257 241 228 223 226 235 242 241 241 247 251 250 249 249 250 251 251 250 248 248 250 250 252 255 257 258 258 255 254 255 255 255 257 259 260 260 255 251 249 250 251 250 249 247 247 248 247 249 251 251 261 274 289
251 262 271 283 288 190 188 201 209 201 184 178 183 195 223 259 289 47 58 37 27 27 33 38 28 27 43 50 48 48 47 49 47 43 44 46 46 48 54 57 55 35 323 312 269 241 233 235 235 238 245 246 244 247 251 250 249 251 251 252 251 252 251 250 250 249 249 251 252 255 259 257 251 252 254 254 255 256 256 258 256 251 247 247 249 248 247 245 243 245 245 246 249 251 256 267 279
254 259 264 279 261 177 181 200 217 215 206 206 191 172 207 224 234 174 85 55 37 30 30 39 41 41 53 56 54 52 44 48 49 39 36 38 40 44 48 48 48 40 21 6 303 220 229 241 243 248 255 256 250 247 250 256 258 257 256 256 255 254 253 252 252 250 249 251 254 258 262 261 256 254 256 255 255 255 255 255 254 250 245 244 245 245 245 244 242 241 243 245 246 246 247 251 261
253 257 263 258 215 184 183 204 210 200 205 198 158 153 211 202 169 148 108 77 35 36 34 40 50 52 52 52 55 56 48 49 52 43 33 31 30 31 35 34 33 35 32 26 22 39 229 243 245 253 260 262 258 254 259 274 280 274 269 267 265 260 256 254 256 257 256 257 260 262 264 265 264 262 261 257 255 254 254 255 254 251 244 241 242 242 242 241 240 240 240 242 243 244 244 243 249
253 255 258 233 222 200 178 199 190 180 201 185 147 146 208 162 118 121 120 119 58 44 48 40 46 58 53 48 51 54 54 50 48 46 36 29 27 23 25 24 23 25 25 25 26 27 19 342 288 269 265 266 270 274 282 288 289 287 283 280 277 269 260 257 259 263 264 265 264 264 266 268 268 268 265 260 255 252 253 254 253 250 243 239 238 238 239 238 238 240 240 239 240 242 243 242 244
250 251 250 224 216 201 190 202 178 162 179 168 150 137 136 140 126 130 143 123 85 53 58 49 43 60 56 45 44 43 45 47 41 39 35 30 25 20 20 19 17 15 11 15 18 18 14 4 347 316 294 284 283 286 289 290 290 290 288 288 287 278 267 262 262 265 268 267 265 265 266 268 269 269 266 262 256 250 251 251 249 248 242 237 235 234 235 235 235 238 239 238 237 239 241 241 241
241 243 244 220 195 186 202 199 163 151 171 177 178 181 162 176 179 167 166 137 104 86 69 67 48 41 53 41 36 37 35 37 33 30 31 24 18 14 14 12 8 4 1 1 360 357 358 355 353 343 328 320 312 305 303 299 295 292 290 290 288 281 275 270 268 268 270 269 267 265 266 267 269 267 266 265 260 250 249 250 246 245 242 237 234 232 232 231 232 235 237 237 236 236 238 239 240
225 222 234 206 177 177 188 176 159 157 190 195 200 220 228 188 203 204 174 159 142 131 116 101 74 359 40 34 19 30 30 27 21 18 18 10 5 1 0 359 356 354 352 351 348 344 343 343 343 339 332 326 323 321 319 312 304 298 295 292 287 281 275 271 270 271 270 269 269 269 268 267 268 269 269 267 264 255 248 249 248 244 241 236 233 232 231 229 229 234 236 236 235 235 236 237 239
219 233 228 177 165 173 169 165 169 169 181 197 204 221 256 221 221 236 198 173 188 166 189 221 208 307 6 23 1 2 10 15 10 9 8 2 359 355 353 351 346 343 341 339 336 331 328 328 327 327 324 321 318 316 314 312 308 303 299 296 292 286 280 274 273 273 270 268 271 273 272 270 270 271 268 265 266 264 255 251 252 249 243 237 232 231 231 227 226 231 235 235 234 234 236 236 237
232 249 212 154 157 169 163 168 191 188 178 200 199 208 246 217 214 245 224 188 207 188 194 220 214 246 286 339 1 358 11 29 30 24 16 7 2 356 352 347 339 335 330 325 321 316 315 313 312 312 311 311 310 310 308 306 305 301 299 297 293 291 288 282 278 275 272 271 273 274 274 274 272 270 269 269 272 273 269 262 258 253 246 239 233 230 230 227 226 229 233 234 233 233 234 236 236
237 242 179 144 151 160 164 179 192 191 210 226 197 201 242 208 188 227 227 203 209 199 197 215 224 238 260 258 129 122 112 89 68 45 22 4 354 347 342 339 334 329 324 319 316 312 310 307 305 304 302 301 301 301 301 302 302 299 296 295 293 291 288 285 284 281 279 278 277 277 277 278 275 273 273 272 269 270 271 266 261 254 246 239 234 231 231 228 227 230 233 234 234 232 232 236 238
238 222 156 136 141 152 163 181 180 196 225 221 196 200 235 245 194 206 218 211 200 196 201 210 220 228 224 185 147 142 139 113 74 35 10 355 348 344 342 339 334 330 326 324 323 321 318 313 309 306 303 300 299 298 298 297 297 295 293 293 293 291 289 287 285 283 281 280 279 280 281 280 280 279 276 271 266 267 269 265 260 254 247 241 237 234 234 231 230 232 234 234 234 233 231 234 238
225 188 157 142 142 156 161 168 189 223 221 185 196 203 221 253 223 197 216 222 197 194 208 210 212 209 196 178 159 157 149 94 33 11 359 352 349 344 341 338 332 329 326 325 326 324 323 320 317 315 311 306 304 301 300 297 294 292 290 289 289 289 289 287 283 280 279 280 280 281 282 283 284 283 281 278 272 267 265 263 260 254 248 243 240 237 235 234 233 234 236 235 234 234 231 232 236
199 180 183 186 166 175 191 182 205 243 191 160 189 206 222 248 221 202 223 232 199 192 209 212 211 205 194 181 172 172 169 98 0 352 347 344 343 339 334 329 325 326 325 323 325 325 324 324 323 323 320 317 313 308 304 301 296 292 288 286 286 286 287 286 283 280 278 279 280 281 282 283 284 284 282 279 273 265 262 261 258 252 248 244 241 238 236 235 235 234 234 234 233 233 232 231 234
199 190 204 220 211 215 227 210 236 252 168 161 182 210 228 236 224 219 219 213 194 193 209 214 212 208 199 185 181 190 209 266 321 331 332 330 329 330 327 318 312 317 324 327 327 327 326 326 325 325 324 322 319 315 311 307 303 298 293 288 285 283 283 283 281 280 278 279 279 280 281 282 283 284 283 279 273 266 262 261 257 251 248 246 242 239 237 236 236 234 232 232 231 232 231 230 232
209 206 226 242 249 258 263 258 273 277 138 158 188 214 223 211 221 215 192 190 191 192 209 217 215 211 202 193 198 219 246 288 318 323 323 322 323 330 335 328 312 305 316 327 330 329 328 327 326 325 324 323 322 320 316 313 309 305 301 296 291 287 284 282 280 279 278 278 277 277 277 279 281 283 283 281 276 269 264 263 260 256 253 250 244 240 239 237 236 234 230 230 229 230 230 229 230
207 210 231 246 247 254 271 284 291 285 198 173 193 214 216 223 225 201 181 189 186 189 210 217 216 216 208 203 219 244 273 303 319 320 320 322 327 340 352 353 341 316 312 321 327 329 327 326 326 325 325 324 323 322 319 316 313 309 306 303 299 295 291 287 285 283 281 281 281 278 275 276 278 280 281 281 279 274 268 265 263 260 258 255 248 243 240 239 237 235 232 229 228 229 230 230 230
206 212 222 241 241 237 259 263 221 258 258 191 195 220 205 221 233 208 191 190 187 194 206 209 210 215 218 223 238 261 290 311 321 323 325 330 337 347 352 355 356 348 333 326 325 326 324 323 323 322 323 322 322 321 318 317 314 312 309 306 302 300 297 293 289 286 285 283 283 282 280 277 278 279 281 280 280 279 274 269 265 260 257 256 252 245 242 242 240 237 234 231 228 229 231 230 230
205 225 227 238 239 228 250 267 244 251 261 210 208 237 218 205 219 211 198 191 195 199 199 202 205 209 222 236 246 273 306 320 325 328 330 337 343 346 348 350 351 351 346 339 332 327 324 322 319 317 318 318 318 317 315 313 312 311 310 307 304 302 299 297 294 290 286 283 281 281 280 279 278 278 279 280 280 279 276 274 269 263 258 257 257 252 245 244 243 240 237 234 229 228 231 231 230
206 226 232 227 235 232 234 261 277 265 270 244 193 232 238 222 222 226 216 197 195 199 198 201 201 206 230 244 255 288 315 325 329 332 334 339 342 343 345 347 347 347 345 341 337 331 324 320 316 314 314 314 315 314 313 313 312 310 309 306 305 302 300 298 296 294 290 286 282 279 277 277 276 275 276 276 277 277 277 275 272 268 263 259 260 258 250 245 245 244 241 240 234 228 229 230 231
209 215 225 225 248 262 233 245 269 276 290 293 209 230 230 208 221 238 235 213 194 196 200 202 205 216 238 250 269 301 318 327 333 336 336 339 342 343 343 343 344 343 342 339 336 332 328 324 321 317 314 312 311 311 311 310 310 309 307 305 304 302 300 298 296 296 294 291 286 281 277 275 274 274 274 273 273 273 274 274 273 271 268 263 261 260 253 247 246 246 243 242 240 234 228 229 231
219 221 222 221 235 246 235 238 248 269 290 290 273 270 157 162 220 226 224 214 195 197 205 207 212 223 232 249 276 303 318 329 336 339 340 340 341 342 340 339 340 338 337 337 335 334 332 331 330 327 323 320 316 313 311 308 306 305 303 302 301 300 300 299 297 296 296 295 293 289 283 278 275 274 274 273 272 272 272 273 273 271 269 266 262 260 257 250 244 243 243 243 243 239 231 228 231
220 234 234 227 224 228 252 243 212 247 286 296 296 303 116 166 237 205 195 203 196 199 211 213 218 227 229 252 281 295 312 327 335 341 341 338 338 338 335 334 335 335 335 335 334 333 333 332 332 330 328 325 323 320 318 314 311 306 302 298 296 296 297 297 297 297 297 297 297 295 292 286 281 277 276 276 275 274 273 272 273 272 270 269 265 261 258 252 244 240 241 243 243 241 235 230 232